Flag for U.S.A. Weather past 2 weeks in Hampton, Virginia, U.S.A.

Now
30 °F

Light snow. Ice fog.


Feels Like: 20 °F
Forecast: 33 / 39 °F
Wind: 13 mph from North

Location: Langley Air Force Base

Current Time: Jan 27, 2015 at 7:56:34 AM

Latest Report: Jan 27, 2015 at 7:03 AM


Visibility: 5 mi

Pressure: 29.74 "Hg

Humidity: 86%

Dew point: 27 °F

Location of HamptonLocation

Historic Weather in Hampton — Graph

°F

Hampton temperature yesterday

Maximum temperature yesterday: 47 °F (at 11:58 AM)
Minimum temperature yesterday: 34 °F (at 11:58 PM)
Average temperature yesterday: 41 °F

Past Weeks' High & Low Weather Summary

 TemperatureHumidityPressure
High57 °F (Jan 12, 1:52 PM)100% (Jan 12, 11:49 AM)30.51 "Hg (Jan 12, 11:49 AM)
Low28 °F (Jan 23, 1:03 AM)41% (Jan 16, 3:58 PM)29.46 "Hg (Jan 24, 12:58 PM)
Average39 °F83%30.08 "Hg
* Reported Jan 12 6:58 AM — Jan 27 6:58 AM, Hampton, Weather by CustomWeather, © 2014

Note: Actual official high and low records may vary slightly from our data, if they occured in-between our weather recording intervals... More about our weather records

Advertising

Hampton weather history for previous 24 hours

 ConditionsComfort  
Time TempWeatherWind HumidityBarometerVisibility
6:58 AM
Jan 27
30 °FLight snow. Ice fog.14 mph86%29.75 "Hg5 mi
5:58 AM30 °FLight snow. Overcast.9 mph86%29.72 "Hg8 mi
4:58 AM29 °FLight snow. Ice fog.8 mph90%29.71 "Hg3 mi
4:03 AM30 °FLight snow. Ice fog.13 mph86%29.68 "Hg6 mi
3:58 AM30 °FLight snow. Ice fog.13 mph90%29.70 "Hg5 mi
2:58 AM31 °FLight snow. Ice fog.9 mph88%29.70 "Hg2 mi
1:58 AM32 °FLight snow. Fog.16 mph89%29.68 "Hg3 mi
12:58 AM33 °FLight rain. Mostly cloudy.13 mph91%29.67 "Hg8 mi
12:03 AM32 °FLight snow. Ice fog.15 mph100%29.64 "Hg4 mi
11:58 PM
Jan 26
34 °FLight snow. Fog.13 mph89%29.66 "Hg6 mi
10:59 PM36 °FLight rain. Overcast.13 mph87%29.64 "Hg10 mi
9:58 PM37 °FLow clouds.17 mph87%29.65 "Hg10 mi
9:04 PM37 °FLow clouds.17 mph87%29.62 "Hg10 mi
7:58 PM39 °FLow clouds.16 mph88%29.63 "Hg10 mi
6:58 PM40 °FLow clouds.13 mph88%29.63 "Hg10 mi
5:58 PM41 °FLow clouds.12 mph89%29.60 "Hg9 mi
4:58 PM44 °FOvercast.16 mph83%29.60 "Hg8 mi
3:58 PM46 °FOvercast.13 mph82%29.59 "Hg10 mi
3:03 PM46 °FDrizzle. Overcast.14 mph82%29.56 "Hg10 mi
1:58 PM46 °FPassing clouds.13 mph80%29.58 "Hg10 mi
12:58 PM46 °FSunny.10 mph82%29.63 "Hg10 mi
11:58 AM47 °FSunny.12 mph79%29.66 "Hg10 mi
10:58 AM46 °FSunny.8 mph81%29.70 "Hg10 mi
9:58 AM43 °FPartly sunny.6 mph85%29.73 "Hg10 mi
8:58 AM42 °FPartly sunny.6 mph87%29.74 "Hg10 mi
7:58 AM41 °FPassing clouds.5 mph92%29.75 "Hg10 mi
Weather by CustomWeather, © 2014

See weather overviewHow to use our weather pages